Time,TemperatureF,DewpointF,PressureIn,WindDirection,WindDirectionDegrees,WindSpeedMPH,WindSpeedGustMPH,Humidity,HourlyPrecipIn,Conditions,Clouds,dailyrainin,SoftwareType,DateUTC
2013-01-18 00:02:00,17.2,11.5,30.40,North,355,0.0,1.0,78,0.00,,---,0.00,VWS V14.01,2013-01-18 06:02:00,
2013-01-18 00:07:00,17.3,11.6,30.39,North,355,0.0,1.0,78,0.00,,---,0.00,VWS V14.01,2013-01-18 06:07:00,
2013-01-18 00:12:00,17.4,11.7,30.39,North,355,0.0,1.0,78,0.00,,---,0.00,VWS V14.01,2013-01-18 06:12:00,
2013-01-18 00:17:00,17.4,11.7,30.38,North,355,0.0,0.0,78,0.00,,---,0.00,VWS V14.01,2013-01-18 06:17:00,
2013-01-18 00:22:00,17.5,11.8,30.38,North,355,0.0,1.0,78,0.00,,---,0.00,VWS V14.01,2013-01-18 06:22:00,
2013-01-18 00:27:00,17.6,11.9,30.38,NE,54,2.0,2.0,78,0.00,,---,0.00,VWS V14.01,2013-01-18 06:27:00,
2013-01-18 00:32:00,17.6,11.9,30.37,NE,54,0.0,2.0,78,0.00,,---,0.00,VWS V14.01,2013-01-18 06:32:00,
2013-01-18 00:37:00,17.7,12.0,30.37,SSW,209,1.0,3.0,78,0.00,,---,0.00,VWS V14.01,2013-01-18 06:37:00,
2013-01-18 00:42:00,17.7,12.0,30.37,South,191,0.0,3.0,78,0.00,,---,0.00,VWS V14.01,2013-01-18 06:42:00,
2013-01-18 00:47:00,17.7,12.0,30.38,South,191,0.0,1.0,78,0.00,,---,0.00,VWS V14.01,2013-01-18 06:47:00,
2013-01-18 00:52:00,17.7,12.0,30.37,SSW,192,0.0,1.0,78,0.00,,---,0.00,VWS V14.01,2013-01-18 06:52:00,
2013-01-18 00:57:00,17.8,12.4,30.37,ESE,119,1.0,2.0,79,0.00,,---,0.00,VWS V14.01,2013-01-18 06:57:00,
2013-01-18 01:02:00,17.8,12.4,30.37,SE,132,0.0,1.0,79,0.00,,---,0.00,VWS V14.01,2013-01-18 07:02:00,
2013-01-18 01:07:00,17.7,12.3,30.36,SE,133,0.0,1.0,79,0.00,,---,0.00,VWS V14.01,2013-01-18 07:07:00,
2013-01-18 01:12:00,17.7,12.6,30.35,SE,130,1.0,1.0,80,0.00,,---,0.00,VWS V14.01,2013-01-18 07:12:00,
2013-01-18 01:17:00,17.7,12.6,30.35,ESE,109,0.0,2.0,80,0.00,,---,0.00,VWS V14.01,2013-01-18 07:17:00,
2013-01-18 01:22:00,17.6,12.8,30.35,ESE,108,0.0,2.0,81,0.00,,---,0.00,VWS V14.01,2013-01-18 07:22:00,
2013-01-18 01:27:00,17.6,12.8,30.35,SE,135,1.0,2.0,81,0.00,,---,0.00,VWS V14.01,2013-01-18 07:27:00,
2013-01-18 01:32:00,17.6,12.8,30.34,South,179,2.0,2.0,81,0.00,,---,0.00,VWS V14.01,2013-01-18 07:32:00,
2013-01-18 01:37:00,17.6,13.1,30.34,South,180,0.0,2.0,82,0.00,,---,0.00,VWS V14.01,2013-01-18 07:37:00,
2013-01-18 01:42:00,17.6,13.1,30.33,South,179,1.0,2.0,82,0.00,,---,0.00,VWS V14.01,2013-01-18 07:42:00,
2013-01-18 01:47:00,17.7,13.1,30.32,East,95,0.0,4.0,82,0.00,,---,0.00,VWS V14.01,2013-01-18 07:47:00,
2013-01-18 01:52:00,17.7,13.4,30.32,East,97,1.0,4.0,83,0.00,,---,0.00,VWS V14.01,2013-01-18 07:52:00,
2013-01-18 01:57:00,17.7,13.4,30.32,SSE,162,1.0,5.0,83,0.00,,---,0.00,VWS V14.01,2013-01-18 07:57:00,
2013-01-18 02:02:00,17.7,13.4,30.32,East,83,1.0,2.0,83,0.00,,---,0.00,VWS V14.01,2013-01-18 08:02:00,
2013-01-18 02:07:00,17.7,13.4,30.31,SE,126,1.0,3.0,83,0.00,,---,0.00,VWS V14.01,2013-01-18 08:07:00,
2013-01-18 02:12:00,17.8,13.5,30.31,SSW,197,0.0,3.0,83,0.00,,---,0.00,VWS V14.01,2013-01-18 08:12:00,
2013-01-18 02:17:00,17.8,13.5,30.32,SSW,197,0.0,0.0,83,0.00,,---,0.00,VWS V14.01,2013-01-18 08:17:00,
2013-01-18 02:22:00,17.9,13.6,30.31,SSW,197,0.0,0.0,83,0.00,,---,0.00,VWS V14.01,2013-01-18 08:22:00,
2013-01-18 02:27:00,18.0,13.7,30.30,SE,135,0.0,2.0,83,0.00,,---,0.00,VWS V14.01,2013-01-18 08:27:00,
2013-01-18 02:32:00,18.1,13.8,30.30,SE,135,0.0,1.0,83,0.00,,---,0.00,VWS V14.01,2013-01-18 08:32:00,
2013-01-18 02:37:00,18.1,13.8,30.30,East,95,1.0,4.0,83,0.00,,---,0.00,VWS V14.01,2013-01-18 08:37:00,
2013-01-18 02:42:00,18.1,13.8,30.29,ESE,112,0.0,4.0,83,0.00,,---,0.00,VWS V14.01,2013-01-18 08:42:00,
2013-01-18 02:47:00,18.2,13.9,30.29,ESE,109,0.0,1.0,83,0.00,,---,0.00,VWS V14.01,2013-01-18 08:47:00,
2013-01-18 02:52:00,18.2,13.9,30.28,SE,137,1.0,4.0,83,0.00,,---,0.00,VWS V14.01,2013-01-18 08:52:00,
2013-01-18 02:57:00,18.3,14.0,30.28,ENE,62,0.0,4.0,83,0.00,,---,0.00,VWS V14.01,2013-01-18 08:57:00,
2013-01-18 03:02:00,18.3,14.0,30.27,SE,130,1.0,3.0,83,0.00,,---,0.00,VWS V14.01,2013-01-18 09:02:00,
2013-01-18 03:07:00,18.3,14.0,30.26,ESE,109,1.0,5.0,83,0.00,,---,0.00,VWS V14.01,2013-01-18 09:07:00,
2013-01-18 03:12:00,18.4,13.8,30.26,SE,134,1.0,5.0,82,0.00,,---,0.00,VWS V14.01,2013-01-18 09:12:00,
2013-01-18 03:17:00,18.5,14.2,30.26,SE,134,0.0,1.0,83,0.00,,---,0.00,VWS V14.01,2013-01-18 09:17:00,
2013-01-18 03:22:00,18.5,14.2,30.25,East,79,0.0,4.0,83,0.00,,---,0.00,VWS V14.01,2013-01-18 09:22:00,
2013-01-18 03:27:00,18.6,14.3,30.25,ENE,59,2.0,4.0,83,0.00,,---,0.00,VWS V14.01,2013-01-18 09:27:00,
2013-01-18 03:32:00,18.6,14.3,30.25,ENE,76,1.0,2.0,83,0.00,,---,0.00,VWS V14.01,2013-01-18 09:32:00,
2013-01-18 03:37:00,18.7,14.4,30.25,ESE,112,1.0,3.0,83,0.00,,---,0.00,VWS V14.01,2013-01-18 09:37:00,
2013-01-18 03:42:00,18.8,14.5,30.25,SE,134,1.0,5.0,83,0.00,,---,0.00,VWS V14.01,2013-01-18 09:42:00,
2013-01-18 03:47:00,18.9,14.6,30.24,ENE,65,1.0,3.0,83,0.00,,---,0.00,VWS V14.01,2013-01-18 09:47:00,
2013-01-18 03:52:00,18.9,14.9,30.24,East,89,0.0,4.0,84,0.00,,---,0.00,VWS V14.01,2013-01-18 09:52:00,
2013-01-18 03:57:00,19.0,15.0,30.23,SE,133,1.0,4.0,84,0.00,,---,0.00,VWS V14.01,2013-01-18 09:57:00,
2013-01-18 04:02:00,19.0,15.0,30.22,SSE,158,5.0,5.0,84,0.00,,---,0.00,VWS V14.01,2013-01-18 10:02:00,
2013-01-18 04:07:00,19.0,15.0,30.21,ENE,74,2.0,7.0,84,0.00,,---,0.00,VWS V14.01,2013-01-18 10:07:00,
2013-01-18 04:12:00,19.0,15.0,30.20,ENE,78,3.0,7.0,84,0.00,,---,0.00,VWS V14.01,2013-01-18 10:12:00,
2013-01-18 04:17:00,19.0,15.0,30.20,East,81,2.0,5.0,84,0.00,,---,0.00,VWS V14.01,2013-01-18 10:17:00,
2013-01-18 04:22:00,19.0,15.0,30.19,East,85,0.0,5.0,84,0.00,,---,0.00,VWS V14.01,2013-01-18 10:22:00,
2013-01-18 04:27:00,19.0,15.0,30.19,NE,38,1.0,5.0,84,0.00,,---,0.00,VWS V14.01,2013-01-18 10:27:00,
2013-01-18 04:32:00,19.0,15.2,30.18,NE,50,1.0,5.0,85,0.00,,---,0.00,VWS V14.01,2013-01-18 10:32:00,
2013-01-18 04:37:00,19.0,15.2,30.18,SE,137,3.0,7.0,85,0.00,,---,0.00,VWS V14.01,2013-01-18 10:37:00,
2013-01-18 04:42:00,19.1,15.3,30.18,ENE,68,2.0,7.0,85,0.00,,---,0.00,VWS V14.01,2013-01-18 10:42:00,
2013-01-18 04:47:00,19.2,15.2,30.17,ENE,68,0.0,6.0,84,0.00,,---,0.00,VWS V14.01,2013-01-18 10:47:00,
2013-01-18 04:52:00,19.3,15.3,30.17,ENE,76,4.0,6.0,84,0.00,,---,0.00,VWS V14.01,2013-01-18 10:52:00,
2013-01-18 04:57:00,19.4,15.4,30.16,East,100,0.0,6.0,84,0.00,,---,0.00,VWS V14.01,2013-01-18 10:57:00,
2013-01-18 05:02:00,19.5,15.2,30.16,ENE,68,3.0,7.0,83,0.00,,---,0.00,VWS V14.01,2013-01-18 11:02:00,
2013-01-18 05:07:00,19.6,15.3,30.17,ESE,116,1.0,7.0,83,0.00,,---,0.00,VWS V14.01,2013-01-18 11:07:00,
2013-01-18 05:12:00,19.7,15.4,30.16,SE,126,1.0,7.0,83,0.00,,---,0.00,VWS V14.01,2013-01-18 11:12:00,
2013-01-18 05:17:00,19.8,15.2,30.15,ENE,72,2.0,4.0,82,0.00,,---,0.00,VWS V14.01,2013-01-18 11:17:00,
2013-01-18 05:22:00,20.0,15.4,30.15,ENE,76,1.0,4.0,82,0.00,,---,0.00,VWS V14.01,2013-01-18 11:22:00,
2013-01-18 05:27:00,20.1,15.5,30.14,East,83,2.0,8.0,82,0.00,,---,0.00,VWS V14.01,2013-01-18 11:27:00,
2013-01-18 05:32:00,20.3,15.4,30.13,East,97,1.0,4.0,81,0.00,,---,0.00,VWS V14.01,2013-01-18 11:32:00,
2013-01-18 05:37:00,20.4,15.5,30.13,ENE,73,1.0,6.0,81,0.00,,---,0.00,VWS V14.01,2013-01-18 11:37:00,
2013-01-18 05:42:00,20.5,15.6,30.12,SSW,212,3.0,7.0,81,0.00,,---,0.00,VWS V14.01,2013-01-18 11:42:00,
2013-01-18 05:47:00,20.7,15.5,30.11,ENE,67,2.0,6.0,80,0.00,,---,0.00,VWS V14.01,2013-01-18 11:47:00,
2013-01-18 05:52:00,20.8,15.6,30.11,ENE,72,1.0,6.0,80,0.00,,---,0.00,VWS V14.01,2013-01-18 11:52:00,
2013-01-18 05:57:00,21.0,15.8,30.10,ESE,112,2.0,6.0,80,0.00,,---,0.00,VWS V14.01,2013-01-18 11:57:00,
2013-01-18 06:02:00,21.2,16.3,30.09,East,99,2.0,4.0,81,0.00,,---,0.00,VWS V14.01,2013-01-18 12:02:00,
2013-01-18 06:07:00,21.3,16.4,30.08,East,86,1.0,7.0,81,0.00,,---,0.00,VWS V14.01,2013-01-18 12:07:00,
2013-01-18 06:12:00,21.5,16.6,30.08,SE,128,3.0,7.0,81,0.00,,---,0.00,VWS V14.01,2013-01-18 12:12:00,
2013-01-18 06:17:00,21.7,16.8,30.09,ESE,109,3.0,4.0,81,0.00,,---,0.00,VWS V14.01,2013-01-18 12:17:00,
2013-01-18 06:22:00,21.9,17.0,30.08,ESE,119,2.0,6.0,81,0.00,,---,0.00,VWS V14.01,2013-01-18 12:22:00,
2013-01-18 06:27:00,22.1,17.5,30.08,ESE,121,1.0,6.0,82,0.00,,---,0.00,VWS V14.01,2013-01-18 12:27:00,
2013-01-18 06:32:00,22.3,17.6,30.07,ENE,69,0.0,5.0,82,0.00,,---,0.00,VWS V14.01,2013-01-18 12:32:00,
2013-01-18 06:37:00,22.4,17.8,30.07,ENE,69,1.0,5.0,82,0.00,,---,0.00,VWS V14.01,2013-01-18 12:37:00,
2013-01-18 06:42:00,22.5,17.9,30.06,ESE,113,1.0,5.0,82,0.00,,---,0.00,VWS V14.01,2013-01-18 12:42:00,
2013-01-18 06:47:00,22.7,18.0,30.05,East,91,2.0,5.0,82,0.00,,---,0.00,VWS V14.01,2013-01-18 12:47:00,
2013-01-18 06:52:00,22.8,18.4,30.05,ENE,72,4.0,8.0,83,0.00,,---,0.00,VWS V14.01,2013-01-18 12:52:00,
2013-01-18 06:57:00,23.1,18.7,30.04,ESE,113,2.0,8.0,83,0.00,,---,0.00,VWS V14.01,2013-01-18 12:57:00,
2013-01-18 07:02:00,23.1,18.7,30.03,ESE,103,2.0,6.0,83,0.00,,---,0.00,VWS V14.01,2013-01-18 13:02:00,
2013-01-18 07:07:00,23.2,18.8,30.03,ESE,109,3.0,6.0,83,0.00,,---,0.00,VWS V14.01,2013-01-18 13:07:00,
2013-01-18 07:12:00,23.4,19.0,30.02,SE,128,2.0,6.0,83,0.00,,---,0.00,VWS V14.01,2013-01-18 13:12:00,
2013-01-18 07:17:00,23.5,19.4,30.02,East,79,1.0,5.0,84,0.00,,---,0.00,VWS V14.01,2013-01-18 13:17:00,
2013-01-18 07:22:00,23.6,19.5,30.01,SE,140,0.0,5.0,84,0.00,,---,0.00,VWS V14.01,2013-01-18 13:22:00,
2013-01-18 07:27:00,23.7,19.9,30.01,ESE,102,3.0,6.0,85,0.00,,---,0.00,VWS V14.01,2013-01-18 13:27:00,
2013-01-18 07:32:00,24.0,20.1,30.00,SE,131,1.0,3.0,85,0.00,,---,0.00,VWS V14.01,2013-01-18 13:32:00,
2013-01-18 07:37:00,24.2,20.4,30.00,SE,134,0.0,6.0,85,0.00,,---,0.00,VWS V14.01,2013-01-18 13:37:00,
2013-01-18 07:42:00,24.5,20.9,30.00,SE,145,2.0,6.0,86,0.00,,---,0.00,VWS V14.01,2013-01-18 13:42:00,
2013-01-18 07:47:00,24.8,21.2,30.00,ENE,70,1.0,4.0,86,0.00,,---,0.00,VWS V14.01,2013-01-18 13:47:00,
2013-01-18 07:52:00,25.0,21.4,30.00,East,95,1.0,4.0,86,0.00,,---,0.00,VWS V14.01,2013-01-18 13:52:00,
2013-01-18 07:57:00,25.2,21.6,30.00,ENE,67,1.0,4.0,86,0.00,,---,0.00,VWS V14.01,2013-01-18 13:57:00,
2013-01-18 08:02:00,25.4,21.8,29.99,ENE,69,1.0,2.0,86,0.00,,---,0.00,VWS V14.01,2013-01-18 14:02:00,
2013-01-18 08:07:00,25.6,22.0,29.99,ENE,72,0.0,2.0,86,0.00,,---,0.00,VWS V14.01,2013-01-18 14:07:00,
2013-01-18 08:12:00,25.8,22.2,29.99,East,100,0.0,2.0,86,0.00,,---,0.00,VWS V14.01,2013-01-18 14:12:00,
2013-01-18 08:17:00,25.9,22.3,29.99,East,100,0.0,1.0,86,0.00,,---,0.00,VWS V14.01,2013-01-18 14:17:00,
2013-01-18 08:22:00,26.1,22.5,29.99,SW,236,0.0,2.0,86,0.00,,---,0.00,VWS V14.01,2013-01-18 14:22:00,
2013-01-18 08:27:00,26.3,22.7,29.98,SW,236,1.0,2.0,86,0.00,,---,0.00,VWS V14.01,2013-01-18 14:27:00,
2013-01-18 08:32:00,26.5,23.2,29.98,South,169,2.0,2.0,87,0.00,,---,0.00,VWS V14.01,2013-01-18 14:32:00,
2013-01-18 08:37:00,26.7,23.4,29.97,South,169,0.0,2.0,87,0.00,,---,0.00,VWS V14.01,2013-01-18 14:37:00,
2013-01-18 08:42:00,26.9,23.6,29.97,SSW,209,2.0,2.0,87,0.00,,---,0.00,VWS V14.01,2013-01-18 14:42:00,
2013-01-18 08:47:00,27.2,23.9,29.96,SSW,194,0.0,1.0,87,0.00,,---,0.00,VWS V14.01,2013-01-18 14:47:00,
2013-01-18 08:52:00,27.7,24.6,29.96,ESE,103,0.0,3.0,88,0.00,,---,0.00,VWS V14.01,2013-01-18 14:52:00,
2013-01-18 08:57:00,28.2,25.1,29.96,ESE,121,0.0,3.0,88,0.00,,---,0.00,VWS V14.01,2013-01-18 14:57:00,
2013-01-18 09:02:00,28.8,25.7,29.95,South,188,1.0,7.0,88,0.00,,---,0.00,VWS V14.01,2013-01-18 15:02:00,
2013-01-18 09:07:00,29.4,26.0,29.95,ESE,123,1.0,7.0,87,0.00,,---,0.00,VWS V14.01,2013-01-18 15:07:00,
2013-01-18 09:12:00,29.8,26.1,29.94,SE,137,0.0,7.0,86,0.00,,---,0.00,VWS V14.01,2013-01-18 15:12:00,
2013-01-18 09:17:00,30.3,26.6,29.94,East,95,2.0,4.0,86,0.00,,---,0.00,VWS V14.01,2013-01-18 15:17:00,
2013-01-18 09:22:00,30.8,27.1,29.93,ESE,109,0.0,4.0,86,0.00,,---,0.00,VWS V14.01,2013-01-18 15:22:00,
2013-01-18 09:27:00,31.4,27.7,29.94,SW,231,1.0,4.0,86,0.00,,---,0.00,VWS V14.01,2013-01-18 15:27:00,
2013-01-18 09:32:00,32.7,29.0,29.93,WSW,243,2.0,4.0,86,0.00,,---,0.00,VWS V14.01,2013-01-18 15:32:00,
2013-01-18 09:37:00,34.0,29.4,29.93,SSE,158,2.0,5.0,83,0.00,,---,0.00,VWS V14.01,2013-01-18 15:37:00,
2013-01-18 09:42:00,34.9,29.7,29.93,SSW,198,1.0,9.0,81,0.00,,---,0.00,VWS V14.01,2013-01-18 15:42:00,
2013-01-18 09:47:00,35.7,29.8,29.93,South,188,8.0,8.0,79,0.00,,---,0.00,VWS V14.01,2013-01-18 15:47:00,
2013-01-18 09:52:00,36.2,29.7,29.93,SW,217,2.0,8.0,77,0.00,,---,0.00,VWS V14.01,2013-01-18 15:52:00,
2013-01-18 09:57:00,36.3,29.8,29.93,SSE,152,7.0,9.0,77,0.00,,---,0.00,VWS V14.01,2013-01-18 15:57:00,
2013-01-18 10:02:00,36.3,29.5,29.93,SW,223,6.0,9.0,76,0.00,,---,0.00,VWS V14.01,2013-01-18 16:02:00,
2013-01-18 10:07:00,36.5,30.0,29.92,South,184,2.0,9.0,77,0.00,,---,0.00,VWS V14.01,2013-01-18 16:07:00,
2013-01-18 10:12:00,36.8,30.0,29.92,WSW,246,2.0,9.0,76,0.00,,---,0.00,VWS V14.01,2013-01-18 16:12:00,
2013-01-18 10:17:00,37.2,30.0,29.92,SSE,159,3.0,10.0,75,0.00,,---,0.00,VWS V14.01,2013-01-18 16:17:00,
2013-01-18 10:22:00,37.9,30.4,29.92,SW,236,1.0,10.0,74,0.00,,---,0.00,VWS V14.01,2013-01-18 16:22:00,
2013-01-18 10:27:00,38.4,30.5,29.92,SW,218,1.0,13.0,73,0.00,,---,0.00,VWS V14.01,2013-01-18 16:27:00,
2013-01-18 10:32:00,38.8,30.6,29.92,WSW,241,3.0,10.0,72,0.00,,---,0.00,VWS V14.01,2013-01-18 16:32:00,
2013-01-18 10:37:00,39.4,30.8,29.91,SSW,209,2.0,10.0,71,0.00,,---,0.00,VWS V14.01,2013-01-18 16:37:00,
2013-01-18 10:41:00,39.8,30.8,29.91,SSW,197,4.0,10.0,70,0.00,,---,0.00,VWS V14.01,2013-01-18 16:41:00,
2013-01-18 10:46:00,39.9,30.9,29.91,WNW,290,2.0,10.0,70,0.00,,---,0.00,VWS V14.01,2013-01-18 16:46:00,
2013-01-18 10:52:00,39.9,30.9,29.91,South,170,5.0,10.0,70,0.00,,---,0.00,VWS V14.01,2013-01-18 16:52:00,
2013-01-18 10:57:00,40.0,31.0,29.90,SSW,211,3.0,10.0,70,0.00,,---,0.00,VWS V14.01,2013-01-18 16:57:00,
2013-01-18 11:02:00,40.2,30.9,29.90,SW,222,5.0,11.0,69,0.00,,---,0.00,VWS V14.01,2013-01-18 17:02:00,
2013-01-18 11:07:00,40.1,30.8,29.90,NW,308,0.0,11.0,69,0.00,,---,0.00,VWS V14.01,2013-01-18 17:07:00,
2013-01-18 11:11:00,40.3,31.0,29.90,ESE,116,3.0,11.0,69,0.00,,---,0.00,VWS V14.01,2013-01-18 17:11:00,
2013-01-18 11:17:00,40.4,30.7,29.89,ENE,71,2.0,11.0,68,0.00,,---,0.00,VWS V14.01,2013-01-18 17:17:00,
2013-01-18 11:22:00,40.4,30.7,29.88,WSW,251,2.0,13.0,68,0.00,,---,0.00,VWS V14.01,2013-01-18 17:22:00,
2013-01-18 11:26:00,40.3,30.6,29.88,WNW,300,2.0,13.0,68,0.00,,---,0.00,VWS V14.01,2013-01-18 17:26:00,
2013-01-18 11:31:00,40.4,30.7,29.87,WSW,252,3.0,6.0,68,0.00,,---,0.00,VWS V14.01,2013-01-18 17:31:00,
2013-01-18 11:36:00,40.6,30.9,29.86,SW,218,3.0,9.0,68,0.00,,---,0.00,VWS V14.01,2013-01-18 17:36:00,
2013-01-18 11:41:00,40.9,31.2,29.86,NNE,29,1.0,9.0,68,0.00,,---,0.00,VWS V14.01,2013-01-18 17:41:00,
2013-01-18 11:46:00,41.1,31.0,29.85,SW,222,6.0,7.0,67,0.00,,---,0.00,VWS V14.01,2013-01-18 17:46:00,
2013-01-18 11:51:00,41.2,31.1,29.85,SW,233,2.0,9.0,67,0.00,,---,0.00,VWS V14.01,2013-01-18 17:51:00,
2013-01-18 11:56:00,41.5,31.0,29.85,South,180,4.0,12.0,66,0.00,,---,0.00,VWS V14.01,2013-01-18 17:56:00,
2013-01-18 12:01:00,41.4,30.9,29.85,WNW,300,2.0,7.0,66,0.00,,---,0.00,VWS V14.01,2013-01-18 18:01:00,
2013-01-18 12:06:00,41.5,31.4,29.85,SW,230,2.0,9.0,67,0.00,,---,0.00,VWS V14.01,2013-01-18 18:06:00,
2013-01-18 12:11:00,41.8,31.3,29.84,SW,232,0.0,9.0,66,0.00,,---,0.00,VWS V14.01,2013-01-18 18:11:00,
2013-01-18 12:16:00,42.1,31.6,29.84,WNW,282,1.0,5.0,66,0.00,,---,0.00,VWS V14.01,2013-01-18 18:16:00,
2013-01-18 12:21:00,42.4,31.5,29.83,WNW,288,3.0,7.0,65,0.00,,---,0.00,VWS V14.01,2013-01-18 18:21:00,
2013-01-18 12:26:00,42.3,31.4,29.83,WSW,254,4.0,11.0,65,0.00,,---,0.00,VWS V14.01,2013-01-18 18:26:00,
2013-01-18 12:31:00,42.3,31.4,29.82,West,268,1.0,8.0,65,0.00,,---,0.00,VWS V14.01,2013-01-18 18:31:00,
2013-01-18 12:36:00,42.3,31.4,29.82,SSE,168,7.0,11.0,65,0.00,,---,0.00,VWS V14.01,2013-01-18 18:36:00,
2013-01-18 12:41:00,42.2,31.3,29.82,SSW,206,4.0,13.0,65,0.00,,---,0.00,VWS V14.01,2013-01-18 18:41:00,
2013-01-18 12:46:00,42.2,31.3,29.82,SE,128,2.0,9.0,65,0.00,,---,0.00,VWS V14.01,2013-01-18 18:46:00,
2013-01-18 12:51:00,41.9,31.4,29.82,West,261,10.0,10.0,66,0.00,,---,0.00,VWS V14.01,2013-01-18 18:51:00,
2013-01-18 12:56:00,41.6,31.5,29.83,SW,233,2.0,10.0,67,0.00,,---,0.00,VWS V14.01,2013-01-18 18:56:00,
2013-01-18 13:01:00,41.6,31.5,29.82,SW,230,3.0,6.0,67,0.00,,---,0.00,VWS V14.01,2013-01-18 19:01:00,
2013-01-18 13:06:00,41.5,31.4,29.82,SSW,213,5.0,8.0,67,0.00,,---,0.00,VWS V14.01,2013-01-18 19:06:00,
2013-01-18 13:11:00,41.5,31.4,29.82,WSW,251,1.0,8.0,67,0.00,,---,0.00,VWS V14.01,2013-01-18 19:11:00,
2013-01-18 13:16:00,41.6,31.5,29.81,SW,223,2.0,9.0,67,0.00,,---,0.00,VWS V14.01,2013-01-18 19:16:00,
2013-01-18 13:21:00,41.6,31.8,29.81,SW,232,0.0,9.0,68,0.00,,---,0.00,VWS V14.01,2013-01-18 19:21:00,
2013-01-18 13:26:00,42.0,32.2,29.81,West,261,1.0,9.0,68,0.00,,---,0.00,VWS V14.01,2013-01-18 19:26:00,
2013-01-18 13:31:00,42.1,32.0,29.81,WSW,242,2.0,8.0,67,0.00,,---,0.00,VWS V14.01,2013-01-18 19:31:00,
2013-01-18 13:36:00,42.1,32.0,29.81,ENE,74,1.0,9.0,67,0.00,,---,0.00,VWS V14.01,2013-01-18 19:36:00,
2013-01-18 13:41:00,41.9,31.8,29.81,West,263,3.0,9.0,67,0.00,,---,0.00,VWS V14.01,2013-01-18 19:41:00,
2013-01-18 13:47:00,41.8,31.7,29.81,WNW,300,1.0,7.0,67,0.00,,---,0.00,VWS V14.01,2013-01-18 19:47:00,
2013-01-18 13:52:00,41.7,31.9,29.81,SSW,206,3.0,9.0,68,0.00,,---,0.00,VWS V14.01,2013-01-18 19:52:00,
2013-01-18 13:57:00,41.7,31.9,29.81,WSW,245,1.0,10.0,68,0.00,,---,0.00,VWS V14.01,2013-01-18 19:57:00,
2013-01-18 14:02:00,41.7,31.9,29.81,WSW,247,1.0,8.0,68,0.00,,---,0.00,VWS V14.01,2013-01-18 20:02:00,
2013-01-18 14:07:00,41.6,31.8,29.81,SW,231,1.0,9.0,68,0.00,,---,0.00,VWS V14.01,2013-01-18 20:07:00,
2013-01-18 14:12:00,41.6,31.8,29.80,WNW,287,1.0,9.0,68,0.00,,---,0.00,VWS V14.01,2013-01-18 20:12:00,
2013-01-18 14:17:00,41.7,31.9,29.81,WSW,258,2.0,6.0,68,0.00,,---,0.00,VWS V14.01,2013-01-18 20:17:00,
2013-01-18 14:22:00,41.8,32.0,29.81,WSW,254,7.0,9.0,68,0.00,,---,0.00,VWS V14.01,2013-01-18 20:22:00,
2013-01-18 14:27:00,41.7,31.9,29.81,NW,313,2.0,9.0,68,0.00,,---,0.00,VWS V14.01,2013-01-18 20:27:00,
2013-01-18 14:32:00,41.8,31.7,29.81,WNW,291,1.0,6.0,67,0.00,,---,0.00,VWS V14.01,2013-01-18 20:32:00,
2013-01-18 14:37:00,41.7,30.8,29.82,WNW,284,1.0,6.0,65,0.00,,---,0.00,VWS V14.01,2013-01-18 20:37:00,
2013-01-18 14:41:00,41.6,30.3,29.81,NW,315,3.0,9.0,64,0.00,,---,0.00,VWS V14.01,2013-01-18 20:41:00,
2013-01-18 14:46:00,41.3,30.4,29.81,West,261,0.0,9.0,65,0.00,,---,0.00,VWS V14.01,2013-01-18 20:46:00,
2013-01-18 14:51:00,41.5,30.6,29.80,SE,135,2.0,9.0,65,0.00,,---,0.00,VWS V14.01,2013-01-18 20:51:00,
2013-01-18 14:56:00,41.7,30.4,29.80,WSW,247,4.0,9.0,64,0.00,,---,0.00,VWS V14.01,2013-01-18 20:56:00,
2013-01-18 15:01:00,41.7,30.4,29.80,SE,135,2.0,9.0,64,0.00,,---,0.00,VWS V14.01,2013-01-18 21:01:00,
2013-01-18 15:06:00,41.7,30.8,29.80,West,260,2.0,11.0,65,0.00,,---,0.00,VWS V14.01,2013-01-18 21:06:00,
2013-01-18 15:11:00,41.6,30.7,29.81,West,268,1.0,11.0,65,0.00,,---,0.00,VWS V14.01,2013-01-18 21:11:00,
2013-01-18 15:16:00,41.6,30.7,29.81,SW,222,4.0,8.0,65,0.00,,---,0.00,VWS V14.01,2013-01-18 21:16:00,
2013-01-18 15:21:00,41.6,30.7,29.81,WSW,239,4.0,13.0,65,0.00,,---,0.00,VWS V14.01,2013-01-18 21:21:00,
2013-01-18 15:26:00,41.4,30.5,29.81,SW,219,4.0,13.0,65,0.00,,---,0.00,VWS V14.01,2013-01-18 21:26:00,
2013-01-18 15:31:00,41.1,30.2,29.81,NW,311,4.0,10.0,65,0.00,,---,0.00,VWS V14.01,2013-01-18 21:31:00,
2013-01-18 15:36:00,40.8,30.3,29.80,WSW,243,0.0,10.0,66,0.00,,---,0.00,VWS V14.01,2013-01-18 21:36:00,
2013-01-18 15:41:00,40.5,30.4,29.81,WNW,284,2.0,10.0,67,0.00,,---,0.00,VWS V14.01,2013-01-18 21:41:00,
2013-01-18 15:46:00,40.3,30.2,29.81,WSW,258,7.0,8.0,67,0.00,,---,0.00,VWS V14.01,2013-01-18 21:46:00,
2013-01-18 15:51:00,40.2,30.5,29.81,West,268,2.0,8.0,68,0.00,,---,0.00,VWS V14.01,2013-01-18 21:51:00,
2013-01-18 15:56:00,40.2,30.5,29.82,SSE,157,2.0,8.0,68,0.00,,---,0.00,VWS V14.01,2013-01-18 21:56:00,
2013-01-18 16:01:00,40.0,30.3,29.81,WSW,254,2.0,9.0,68,0.00,,---,0.00,VWS V14.01,2013-01-18 22:01:00,
2013-01-18 16:06:00,39.6,30.3,29.82,WSW,247,5.0,9.0,69,0.00,,---,0.00,VWS V14.01,2013-01-18 22:06:00,
2013-01-18 16:11:00,39.3,30.0,29.81,SSW,211,2.0,9.0,69,0.00,,---,0.00,VWS V14.01,2013-01-18 22:11:00,
2013-01-18 16:16:00,39.1,30.2,29.82,NNW,327,4.0,8.0,70,0.00,,---,0.00,VWS V14.01,2013-01-18 22:16:00,
2013-01-18 16:21:00,38.8,30.2,29.82,WNW,284,2.0,8.0,71,0.00,,---,0.00,VWS V14.01,2013-01-18 22:21:00,
2013-01-18 16:26:00,38.7,30.1,29.82,NE,50,2.0,9.0,71,0.00,,---,0.00,VWS V14.01,2013-01-18 22:26:00,
2013-01-18 16:31:00,38.5,29.9,29.82,SSW,209,4.0,9.0,71,0.00,,---,0.00,VWS V14.01,2013-01-18 22:31:00,
2013-01-18 16:36:00,38.5,30.3,29.83,WNW,284,1.0,9.0,72,0.00,,---,0.00,VWS V14.01,2013-01-18 22:36:00,
2013-01-18 16:41:00,38.3,30.1,29.83,West,278,1.0,9.0,72,0.00,,---,0.00,VWS V14.01,2013-01-18 22:41:00,
2013-01-18 16:46:00,38.1,30.2,29.83,West,281,1.0,4.0,73,0.00,,---,0.00,VWS V14.01,2013-01-18 22:46:00,
2013-01-18 16:51:00,38.0,30.1,29.83,WSW,255,1.0,6.0,73,0.00,,---,0.00,VWS V14.01,2013-01-18 22:51:00,
2013-01-18 16:56:00,37.7,29.8,29.83,WSW,253,4.0,6.0,73,0.00,,---,0.00,VWS V14.01,2013-01-18 22:56:00,
2013-01-18 17:01:00,37.6,30.1,29.83,WSW,253,2.0,4.0,74,0.00,,---,0.00,VWS V14.01,2013-01-18 23:01:00,
2013-01-18 17:06:00,37.3,29.8,29.83,WNW,283,1.0,6.0,74,0.00,,---,0.00,VWS V14.01,2013-01-18 23:06:00,
2013-01-18 17:11:00,37.0,29.8,29.83,WNW,290,0.0,6.0,75,0.00,,---,0.00,VWS V14.01,2013-01-18 23:11:00,
2013-01-18 17:16:00,36.8,29.6,29.83,West,260,3.0,6.0,75,0.00,,---,0.00,VWS V14.01,2013-01-18 23:16:00,
2013-01-18 17:21:00,36.6,29.8,29.83,NW,306,1.0,6.0,76,0.00,,---,0.00,VWS V14.01,2013-01-18 23:21:00,
2013-01-18 17:26:00,36.4,29.6,29.83,West,271,1.0,6.0,76,0.00,,---,0.00,VWS V14.01,2013-01-18 23:26:00,
2013-01-18 17:31:00,36.2,29.7,29.83,WSW,245,1.0,5.0,77,0.00,,---,0.00,VWS V14.01,2013-01-18 23:31:00,
2013-01-18 17:36:00,36.0,29.5,29.83,WNW,290,0.0,5.0,77,0.00,,---,0.00,VWS V14.01,2013-01-18 23:36:00,
2013-01-18 17:41:00,35.8,29.3,29.84,West,272,2.0,5.0,77,0.00,,---,0.00,VWS V14.01,2013-01-18 23:41:00,
2013-01-18 17:46:00,35.6,29.4,29.84,West,268,0.0,4.0,78,0.00,,---,0.00,VWS V14.01,2013-01-18 23:46:00,
2013-01-18 17:51:00,35.5,29.3,29.84,WNW,289,0.0,4.0,78,0.00,,---,0.00,VWS V14.01,2013-01-18 23:51:00,
2013-01-18 17:56:00,35.3,29.1,29.84,West,264,0.0,4.0,78,0.00,,---,0.00,VWS V14.01,2013-01-18 23:56:00,
2013-01-18 18:01:00,35.1,29.3,29.84,WNW,294,1.0,2.0,79,0.00,,---,0.00,VWS V14.01,2013-01-19 00:01:00,
2013-01-18 18:06:00,34.9,29.4,29.85,NW,304,1.0,5.0,80,0.00,,---,0.00,VWS V14.01,2013-01-19 00:06:00,
2013-01-18 18:11:00,34.9,29.4,29.84,WNW,296,0.0,5.0,80,0.00,,---,0.00,VWS V14.01,2013-01-19 00:11:00,
2013-01-18 18:16:00,34.7,29.2,29.85,WNW,283,1.0,4.0,80,0.00,,---,0.00,VWS V14.01,2013-01-19 00:16:00,
2013-01-18 18:21:00,34.5,29.0,29.85,WSW,258,0.0,4.0,80,0.00,,---,0.00,VWS V14.01,2013-01-19 00:21:00,
2013-01-18 18:26:00,34.3,28.8,29.84,WSW,258,1.0,4.0,80,0.00,,---,0.00,VWS V14.01,2013-01-19 00:26:00,
2013-01-18 18:31:00,34.1,28.9,29.84,West,260,0.0,2.0,81,0.00,,---,0.00,VWS V14.01,2013-01-19 00:31:00,
2013-01-18 18:36:00,34.0,28.8,29.85,WSW,258,1.0,3.0,81,0.00,,---,0.00,VWS V14.01,2013-01-19 00:36:00,
2013-01-18 18:41:00,33.8,28.9,29.85,WNW,289,0.0,3.0,82,0.00,,---,0.00,VWS V14.01,2013-01-19 00:41:00,
2013-01-18 18:46:00,33.6,28.7,29.85,WNW,291,0.0,1.0,82,0.00,,---,0.00,VWS V14.01,2013-01-19 00:46:00,
2013-01-18 18:51:00,33.5,28.6,29.85,WNW,289,0.0,2.0,82,0.00,,---,0.00,VWS V14.01,2013-01-19 00:51:00,
2013-01-18 18:56:00,33.3,28.7,29.85,WSW,258,1.0,3.0,83,0.00,,---,0.00,VWS V14.01,2013-01-19 00:56:00,
2013-01-18 19:01:00,33.2,28.6,29.86,WSW,256,0.0,3.0,83,0.00,,---,0.00,VWS V14.01,2013-01-19 01:01:00,
2013-01-18 19:06:00,33.2,28.6,29.86,WSW,258,2.0,3.0,83,0.00,,---,0.00,VWS V14.01,2013-01-19 01:06:00,
2013-01-18 19:11:00,33.1,28.5,29.85,WNW,294,0.0,3.0,83,0.00,,---,0.00,VWS V14.01,2013-01-19 01:11:00,
2013-01-18 19:16:00,33.0,28.4,29.85,WSW,252,1.0,2.0,83,0.00,,---,0.00,VWS V14.01,2013-01-19 01:16:00,
2013-01-18 19:21:00,32.8,28.2,29.85,West,263,1.0,2.0,83,0.00,,---,0.00,VWS V14.01,2013-01-19 01:21:00,
2013-01-18 19:26:00,32.6,28.3,29.85,West,267,0.0,2.0,84,0.00,,---,0.00,VWS V14.01,2013-01-19 01:26:00,
2013-01-18 19:31:00,32.6,28.3,29.85,West,281,0.0,4.0,84,0.00,,---,0.00,VWS V14.01,2013-01-19 01:31:00,
2013-01-18 19:36:00,32.4,28.1,29.86,West,281,0.0,4.0,84,0.00,,---,0.00,VWS V14.01,2013-01-19 01:36:00,
2013-01-18 19:42:00,32.3,28.0,29.86,West,280,0.0,4.0,84,0.00,,---,0.00,VWS V14.01,2013-01-19 01:42:00,
2013-01-18 19:47:00,32.1,28.1,29.85,WSW,250,2.0,2.0,85,0.00,,---,0.00,VWS V14.01,2013-01-19 01:47:00,
2013-01-18 19:52:00,32.0,28.0,29.86,WSW,249,0.0,2.0,85,0.00,,---,0.00,VWS V14.01,2013-01-19 01:52:00,
2013-01-18 19:57:00,31.8,27.8,29.86,WNW,294,0.0,2.0,85,0.00,,---,0.00,VWS V14.01,2013-01-19 01:57:00,
2013-01-18 20:02:00,31.7,28.0,29.86,West,271,0.0,2.0,86,0.00,,---,0.00,VWS V14.01,2013-01-19 02:02:00,
2013-01-18 20:07:00,31.8,28.1,29.86,West,278,0.0,4.0,86,0.00,,---,0.00,VWS V14.01,2013-01-19 02:07:00,
2013-01-18 20:12:00,31.8,28.1,29.86,West,268,0.0,4.0,86,0.00,,---,0.00,VWS V14.01,2013-01-19 02:12:00,
2013-01-18 20:17:00,31.7,28.0,29.86,WNW,296,0.0,2.0,86,0.00,,---,0.00,VWS V14.01,2013-01-19 02:17:00,
2013-01-18 20:22:00,31.6,27.9,29.85,WSW,255,1.0,2.0,86,0.00,,---,0.00,VWS V14.01,2013-01-19 02:22:00,
2013-01-18 20:27:00,31.5,27.8,29.86,WSW,240,1.0,3.0,86,0.00,,---,0.00,VWS V14.01,2013-01-19 02:27:00,
2013-01-18 20:32:00,31.5,28.1,29.86,WNW,282,1.0,3.0,87,0.00,,---,0.00,VWS V14.01,2013-01-19 02:32:00,
2013-01-18 20:37:00,31.5,28.1,29.86,WSW,257,1.0,3.0,87,0.00,,---,0.00,VWS V14.01,2013-01-19 02:37:00,
2013-01-18 20:42:00,31.5,28.1,29.86,West,268,1.0,4.0,87,0.00,,---,0.00,VWS V14.01,2013-01-19 02:42:00,
2013-01-18 20:47:00,31.5,28.1,29.86,West,278,2.0,3.0,87,0.00,,---,0.00,VWS V14.01,2013-01-19 02:47:00,
2013-01-18 20:52:00,31.6,28.2,29.86,WSW,254,1.0,3.0,87,0.00,,---,0.00,VWS V14.01,2013-01-19 02:52:00,
2013-01-18 20:57:00,31.6,28.2,29.86,WSW,253,0.0,3.0,87,0.00,,---,0.00,VWS V14.01,2013-01-19 02:57:00,
2013-01-18 21:02:00,31.6,28.2,29.86,WSW,251,0.0,4.0,87,0.00,,---,0.00,VWS V14.01,2013-01-19 03:02:00,
2013-01-18 21:07:00,31.6,27.9,29.85,West,276,1.0,4.0,86,0.00,,---,0.00,VWS V14.01,2013-01-19 03:07:00,
2013-01-18 21:12:00,31.6,27.9,29.85,WSW,258,1.0,4.0,86,0.00,,---,0.00,VWS V14.01,2013-01-19 03:12:00,
2013-01-18 21:17:00,31.6,27.9,29.85,WSW,237,2.0,4.0,86,0.00,,---,0.00,VWS V14.01,2013-01-19 03:17:00,
2013-01-18 21:22:00,31.6,27.9,29.85,West,269,4.0,4.0,86,0.00,,---,0.00,VWS V14.01,2013-01-19 03:22:00,
2013-01-18 21:27:00,31.6,28.2,29.85,West,270,1.0,5.0,87,0.00,,---,0.00,VWS V14.01,2013-01-19 03:27:00,
2013-01-18 21:32:00,31.7,28.3,29.85,West,269,0.0,3.0,87,0.00,,---,0.00,VWS V14.01,2013-01-19 03:32:00,
2013-01-18 21:37:00,31.7,28.3,29.85,WSW,257,1.0,3.0,87,0.00,,---,0.00,VWS V14.01,2013-01-19 03:37:00,
2013-01-18 21:42:00,31.7,28.3,29.86,SW,233,0.0,5.0,87,0.00,,---,0.00,VWS V14.01,2013-01-19 03:42:00,
2013-01-18 21:47:00,31.7,28.3,29.85,WSW,256,0.0,7.0,87,0.00,,---,0.00,VWS V14.01,2013-01-19 03:47:00,
2013-01-18 21:52:00,31.7,28.3,29.85,WNW,293,1.0,7.0,87,0.00,,---,0.00,VWS V14.01,2013-01-19 03:52:00,
2013-01-18 21:57:00,31.7,28.3,29.85,WSW,258,1.0,7.0,87,0.00,,---,0.00,VWS V14.01,2013-01-19 03:57:00,
2013-01-18 22:02:00,31.7,28.3,29.85,WSW,254,4.0,5.0,87,0.00,,---,0.00,VWS V14.01,2013-01-19 04:02:00,
2013-01-18 22:07:00,31.7,28.3,29.85,WSW,253,3.0,5.0,87,0.00,,---,0.00,VWS V14.01,2013-01-19 04:07:00,
2013-01-18 22:12:00,31.6,28.2,29.85,WSW,257,0.0,5.0,87,0.00,,---,0.00,VWS V14.01,2013-01-19 04:12:00,
2013-01-18 22:17:00,31.5,28.1,29.85,WSW,255,0.0,4.0,87,0.00,,---,0.00,VWS V14.01,2013-01-19 04:17:00,
2013-01-18 22:22:00,31.4,28.0,29.85,West,280,1.0,4.0,87,0.00,,---,0.00,VWS V14.01,2013-01-19 04:22:00,
2013-01-18 22:27:00,31.3,27.9,29.85,WNW,287,1.0,4.0,87,0.00,,---,0.00,VWS V14.01,2013-01-19 04:27:00,
2013-01-18 22:32:00,31.2,27.8,29.85,West,279,0.0,2.0,87,0.00,,---,0.00,VWS V14.01,2013-01-19 04:32:00,
2013-01-18 22:37:00,31.1,27.7,29.85,West,278,0.0,2.0,87,0.00,,---,0.00,VWS V14.01,2013-01-19 04:37:00,
2013-01-18 22:42:00,30.8,27.4,29.84,West,278,0.0,0.0,87,0.00,,---,0.00,VWS V14.01,2013-01-19 04:42:00,
2013-01-18 22:47:00,30.6,27.2,29.84,West,278,0.0,0.0,87,0.00,,---,0.00,VWS V14.01,2013-01-19 04:47:00,
2013-01-18 22:52:00,30.3,26.9,29.84,West,278,0.0,1.0,87,0.00,,---,0.00,VWS V14.01,2013-01-19 04:52:00,
2013-01-18 22:57:00,30.0,26.6,29.85,West,278,0.0,0.0,87,0.00,,---,0.00,VWS V14.01,2013-01-19 04:57:00,
2013-01-18 23:01:00,29.6,26.2,29.85,West,277,0.0,0.0,87,0.00,,---,0.00,VWS V14.01,2013-01-19 05:01:00,
2013-01-18 23:02:00,29.6,26.2,29.85,West,277,0.0,0.0,87,0.00,,---,0.00,VWS V14.01,2013-01-19 05:02:00,
2013-01-18 23:07:00,29.2,26.1,29.85,West,278,0.0,0.0,88,0.00,,---,0.00,VWS V14.01,2013-01-19 05:07:00,
2013-01-18 23:12:00,29.0,26.2,29.85,West,277,0.0,0.0,89,0.00,,---,0.00,VWS V14.01,2013-01-19 05:12:00,
2013-01-18 23:17:00,29.1,26.3,29.85,West,277,0.0,0.0,89,0.00,,---,0.00,VWS V14.01,2013-01-19 05:17:00,
2013-01-18 23:22:00,28.8,26.0,29.85,West,278,0.0,0.0,89,0.00,,---,0.00,VWS V14.01,2013-01-19 05:22:00,
2013-01-18 23:27:00,28.5,25.7,29.85,West,278,0.0,0.0,89,0.00,,---,0.00,VWS V14.01,2013-01-19 05:27:00,
2013-01-18 23:32:00,28.1,25.3,29.86,West,277,0.0,0.0,89,0.00,,---,0.00,VWS V14.01,2013-01-19 05:32:00,
2013-01-18 23:37:00,27.8,25.0,29.85,West,278,0.0,0.0,89,0.00,,---,0.00,VWS V14.01,2013-01-19 05:37:00,
2013-01-18 23:42:00,27.5,24.7,29.86,West,278,0.0,0.0,89,0.00,,---,0.00,VWS V14.01,2013-01-19 05:42:00,
2013-01-18 23:47:00,27.4,24.9,29.86,West,277,0.0,0.0,90,0.00,,---,0.00,VWS V14.01,2013-01-19 05:47:00,
2013-01-18 23:52:00,27.4,24.9,29.86,West,278,0.0,0.0,90,0.00,,---,0.00,VWS V14.01,2013-01-19 05:52:00,
2013-01-18 23:57:00,27.3,24.8,29.86,West,278,0.0,0.0,90,0.00,,---,0.00,VWS V14.01,2013-01-19 05:57:00,